Weather History for Cook, MN

Change the Weather History Date:

Sunday, March 10, 2013

  Actual Average Record
Temperature  
Mean Temperature 24 °F -  
Max Temperature 30 °F 30 °F 59 °F (2012)
Min Temperature 19 °F 6 °F -11 °F (2003)
Degree Days  
Heating Degree Days 40    
Moisture  
Dew Point 22 °F    
Average Humidity 87    
Maximum Humidity 100    
Minimum Humidity 74    
Precipitation  
Precipitation 0.00 in - - ()
Sea Level Pressure  
Sea Level Pressure 29.97 in    
Wind  
Wind Speed 4 mph (NNW)    
Max Wind Speed 9 mph    
Max Gust Speed -    
Visibility 9 miles    
Events      
Averages and records for this station are not official NWS values.
T = Trace of Precipitation, MM = Missing Value Source: NWS Daily Summary

Daily Weather History Graph

Daily Weather History Graph

Search for Another Location

Airport:

Trip Planner

Search our weather history database for the weather conditions in past years. The results will help you decide how hot, cold, wet, or windy it might be!

Date:

Astronomy

Mar. 10, 2013 Rise Set
Actual Time 7:33 AM CDT 7:09 PM CDT
Civil Twilight 7:02 AM CDT 7:40 PM CDT
Nautical Twilight 6:26 AM CDT 8:16 PM CDT
Astronomical Twilight 5:50 AM CDT 8:52 PM CDT
Moon 6:36 AM CDT (3/10) 6:17 PM CDT (3/10)
Length of Visible Light 12h 37m
Length of Day
11h 35m
Waning Crescent, 2% of the Moon is Illuminated
Mar 10
Waning Crescent
Mar 11
New
Mar 19
First Quarter
Mar 27
Full
Apr 2
Last Quarter

Hourly Weather History & Observations

Time (CDT) Temp. Windchill Dew Point Humidity Pressure Visibility Wind Dir Wind Speed Gust Speed Precip Events Conditions
12:16 AM 30.2 °F 26.7 °F 28.4 °F 93% 29.80 in 10.0 mi NW 3.5 mph - N/A   Overcast
12:36 AM 30.2 °F 26.7 °F 28.4 °F 93% 29.80 in 10.0 mi NW 3.5 mph - N/A   Overcast
12:57 AM 30.2 °F 25.4 °F 28.4 °F 93% 29.81 in 10.0 mi WNW 4.6 mph - N/A   Overcast
1:16 AM 30.2 °F 25.4 °F 28.4 °F 93% 29.82 in 10.0 mi NW 4.6 mph - N/A   Overcast
1:36 AM 30.2 °F 26.7 °F 28.4 °F 93% 29.82 in 10.0 mi NW 3.5 mph - N/A   Overcast
1:56 AM 30.2 °F - 28.4 °F 93% 29.83 in 7.0 mi Calm Calm - N/A   Overcast
3:16 AM 30.2 °F - 28.4 °F 93% 29.83 in 7.0 mi Calm Calm - N/A   Overcast
3:37 AM 30.2 °F 26.7 °F 28.4 °F 93% 29.84 in 5.0 mi NW 3.5 mph - N/A   Overcast
3:56 AM 30.2 °F 26.7 °F 28.4 °F 93% 29.84 in 5.0 mi NNW 3.5 mph - N/A   Overcast
4:16 AM 30.2 °F - 28.4 °F 93% 29.84 in 5.0 mi Calm Calm - N/A   Overcast
4:37 AM 30.2 °F 25.4 °F 28.4 °F 93% 29.84 in 7.0 mi NW 4.6 mph - N/A   Overcast
4:56 AM 30.2 °F 24.3 °F 28.4 °F 93% 29.83 in 7.0 mi NW 5.8 mph - N/A   Overcast
5:17 AM 30.2 °F 24.3 °F 28.4 °F 93% 29.84 in 7.0 mi NW 5.8 mph - N/A   Overcast
5:37 AM 30.2 °F 25.4 °F 28.4 °F 93% 29.87 in 10.0 mi NW 4.6 mph - N/A   Overcast
5:56 AM 28.4 °F 23.3 °F 26.6 °F 93% 29.88 in 5.0 mi WNW 4.6 mph - N/A   Overcast
6:16 AM 26.6 °F 21.2 °F 26.6 °F 100% 29.89 in 7.0 mi WNW 4.6 mph - N/A   Overcast
7:36 AM 26.6 °F 21.2 °F 26.6 °F 100% 29.94 in 4.0 mi NW 4.6 mph - N/A   Overcast
7:56 AM 26.6 °F 21.2 °F 26.6 °F 100% 29.95 in 4.0 mi NW 4.6 mph - N/A   Overcast
8:16 AM 26.6 °F 21.2 °F 24.8 °F 93% 29.96 in 5.0 mi NW 4.6 mph - N/A   Overcast
8:36 AM 26.6 °F 20.0 °F 24.8 °F 93% 29.96 in 7.0 mi NW 5.8 mph - N/A   Overcast
8:57 AM 26.6 °F 22.6 °F 24.8 °F 93% 29.95 in 5.0 mi NNW 3.5 mph - N/A   Overcast
9:16 AM 26.6 °F 20.0 °F 24.8 °F 93% 29.96 in 5.0 mi NNW 5.8 mph - N/A   Overcast
9:37 AM 26.6 °F 21.2 °F 24.8 °F 93% 29.98 in 5.0 mi NW 4.6 mph - N/A   Overcast
9:57 AM 26.6 °F 22.6 °F 24.8 °F 93% 30.00 in 5.0 mi NW 3.5 mph - N/A   Overcast
10:16 AM 26.6 °F 19.1 °F 24.8 °F 93% 30.00 in 7.0 mi NNW 6.9 mph - N/A   Overcast
10:37 AM 26.6 °F 19.1 °F 24.8 °F 93% 29.99 in 7.0 mi NNW 6.9 mph - N/A   Overcast
10:56 AM 26.6 °F 17.5 °F 24.8 °F 93% 29.99 in 7.0 mi NNW 9.2 mph - N/A   Overcast
11:17 AM 26.6 °F 18.2 °F 23.0 °F 86% 30.00 in 7.0 mi NNW 8.1 mph - N/A   Overcast
11:37 AM 26.6 °F 21.2 °F 23.0 °F 86% 30.01 in 10.0 mi NNW 4.6 mph - N/A   Overcast
11:56 AM 26.6 °F 21.2 °F 23.0 °F 86% 30.02 in 10.0 mi North 4.6 mph - N/A   Overcast
12:17 PM 26.6 °F 21.2 °F 21.2 °F 80% 30.03 in 10.0 mi NNW 4.6 mph - N/A   Overcast
12:36 PM 26.6 °F 19.1 °F 21.2 °F 80% 30.04 in 10.0 mi North 6.9 mph - N/A   Overcast
12:57 PM 26.6 °F 21.2 °F 21.2 °F 80% 30.02 in 10.0 mi NNW 4.6 mph - N/A   Overcast
1:16 PM 26.6 °F 19.1 °F 21.2 °F 80% 30.02 in 10.0 mi NNW 6.9 mph - N/A   Overcast
1:36 PM 24.8 °F 15.3 °F 21.2 °F 86% 30.02 in 10.0 mi NNW 9.2 mph - N/A   Overcast
1:57 PM 26.6 °F 18.2 °F 21.2 °F 80% 30.02 in 10.0 mi North 8.1 mph - N/A   Overcast
2:16 PM 26.6 °F 19.1 °F 19.4 °F 74% 30.05 in 10.0 mi North 6.9 mph - N/A   Overcast
2:37 PM 26.6 °F 19.1 °F 19.4 °F 74% 30.04 in 10.0 mi North 6.9 mph - N/A   Overcast
2:56 PM 26.6 °F 18.2 °F 19.4 °F 74% 30.02 in 10.0 mi North 8.1 mph - N/A   Overcast
3:16 PM 26.6 °F 19.1 °F 19.4 °F 74% 30.01 in 10.0 mi North 6.9 mph - N/A   Overcast
3:37 PM 26.6 °F 18.2 °F 19.4 °F 74% 30.01 in 10.0 mi North 8.1 mph - N/A   Overcast
3:56 PM 26.6 °F 19.1 °F 21.2 °F 80% 30.01 in 10.0 mi NNW 6.9 mph - N/A   Overcast
4:16 PM 26.6 °F 20.0 °F 21.2 °F 80% 30.02 in 10.0 mi North 5.8 mph - N/A   Overcast
4:37 PM 26.6 °F 18.2 °F 21.2 °F 80% 30.03 in 10.0 mi NNW 8.1 mph - N/A   Overcast
4:56 PM 26.6 °F 18.2 °F 19.4 °F 74% 30.05 in 10.0 mi NNW 8.1 mph - N/A   Overcast
5:17 PM 24.8 °F 16.9 °F 19.4 °F 80% 30.04 in 10.0 mi NNW 6.9 mph - N/A   Overcast
5:36 PM 24.8 °F 16.1 °F 19.4 °F 80% 30.04 in 10.0 mi NNW 8.1 mph - N/A   Overcast
5:57 PM 24.8 °F 19.1 °F 19.4 °F 80% 30.03 in 10.0 mi North 4.6 mph - N/A   Overcast
6:16 PM 24.8 °F 16.9 °F 19.4 °F 80% 30.02 in 10.0 mi North 6.9 mph - N/A   Overcast
6:36 PM 24.8 °F 17.9 °F 19.4 °F 80% 30.02 in 10.0 mi North 5.8 mph - N/A   Overcast
6:57 PM 24.8 °F 19.1 °F 19.4 °F 80% 30.03 in 10.0 mi North 4.6 mph - N/A   Overcast
7:16 PM 24.8 °F - 19.4 °F 80% 30.03 in 10.0 mi Calm Calm - N/A   Mostly Cloudy
7:36 PM 23.0 °F - 19.4 °F 86% 30.03 in 10.0 mi Calm Calm - N/A   Mostly Cloudy
7:56 PM 21.2 °F - 17.6 °F 86% 30.03 in 10.0 mi Calm Calm - N/A   Scattered Clouds
8:16 PM 21.2 °F 16.4 °F 17.6 °F 86% 30.02 in 10.0 mi North 3.5 mph - N/A   Mostly Cloudy
8:36 PM 21.2 °F - 19.4 °F 93% 30.02 in 10.0 mi Calm Calm - N/A   Overcast
8:57 PM 21.2 °F 16.4 °F 19.4 °F 93% 30.03 in 10.0 mi NNE 3.5 mph - N/A   Overcast
9:16 PM 21.2 °F 16.4 °F 17.6 °F 86% 30.04 in 10.0 mi NE 3.5 mph - N/A   Overcast
9:36 PM 21.2 °F 14.9 °F 17.6 °F 86% 30.02 in 10.0 mi NE 4.6 mph - N/A   Overcast
9:57 PM 21.2 °F 16.4 °F 17.6 °F 86% 30.02 in 10.0 mi NNE 3.5 mph - N/A   Overcast
10:16 PM 19.4 °F 12.8 °F 15.8 °F 86% 30.02 in 10.0 mi NE 4.6 mph - N/A   Mostly Cloudy
10:36 PM 19.4 °F 12.8 °F 15.8 °F 86% 30.03 in 10.0 mi ENE 4.6 mph - N/A   Mostly Cloudy
10:56 PM 19.4 °F 10.4 °F 15.8 °F 86% 30.02 in 10.0 mi NE 6.9 mph - N/A   Overcast
11:17 PM 19.4 °F 11.5 °F 15.8 °F 86% 30.02 in 10.0 mi NE 5.8 mph - N/A   Overcast
11:36 PM 21.2 °F 13.6 °F 15.8 °F 80% 30.01 in 10.0 mi NE 5.8 mph - N/A   Overcast
11:56 PM 19.4 °F - 15.8 °F 86% 30.01 in 10.0 mi Calm Calm - N/A   Overcast
12:17 AM 19.4 °F 11.5 °F 15.8 °F 86% 30.00 in 10.0 mi ENE 5.8 mph - N/A   Overcast
12:36 AM 19.4 °F 11.5 °F 15.8 °F 86% 30.00 in 10.0 mi NE 5.8 mph - N/A   Overcast
12:56 AM 19.4 °F 12.8 °F 15.8 °F 86% 29.99 in 10.0 mi NNE 4.6 mph - N/A   Overcast